Home   Weather   Yorkton   Past weeks

Flag for Canada Past Weather in Yorkton, Saskatchewan, Canada — Yesterday and Last 2 Weeks

48 °F


Feels Like: 42 °F
Forecast: N/A
Wind: 17 mph from Southeast

Location: Yorkton

Current Time: Oct 24, 2016 at 4:04:06 PM

Latest Report: Oct 24, 2016 at 3:00 PM

Visibility: 9 mi

Pressure: 30.32 "Hg (28.52 "Hg at 505m altitude)

Humidity: 71%

Dew Point: 39 °F

Location of YorktonLocation

Past Weather in Yorkton — Graph


Yorkton Temperature Yesterday

Maximum temperature yesterday: 46 °F (at 4:00 PM)
Minimum temperature yesterday: 28 °F (at 11:52 PM)
Average temperature yesterday: 37 °F

High & Low Weather Summary for the Past Weeks

High54 °F (Oct 21, 3:00 PM)100% (Oct 10, 3:00 PM)30.39 "Hg (Oct 10, 3:00 PM)
Low21 °F (Oct 13, 6:00 AM)45% (Oct 13, 4:00 PM)29.27 "Hg (Oct 17, 1:00 AM)
Average36 °F86%29.97 "Hg
* Reported Oct 9 3:00 PM — Oct 24 3:00 PM, Yorkton, Weather by CustomWeather, © 2016

Note: Actual official high and low records may vary slightly from our data, if they occured in-between our weather recording intervals... More about our weather records


Yorkton Weather History for the Previous 24 Hours

Scroll right to see more
Time TempWeatherWind HumidityBarometerVisibility
3:00 PM
Mon, Oct 24
48 °FSunny.17 mph71%30.32 "Hg9 mi
2:00 PM46 °FPassing clouds.15 mph76%30.33 "Hg9 mi
1:00 PM43 °FPassing clouds.14 mph87%30.35 "Hg9 mi
12:00 PM41 °FSunny.12 mph93%30.37 "Hg9 mi
11:00 AM39 °FPassing clouds.14 mph93%30.37 "Hg9 mi
10:00 AM36 °FScattered clouds.9 mph93%30.38 "Hg9 mi
9:00 AM32 °FPartly sunny.7 mph100%30.39 "Hg9 mi
8:00 AM30 °FHeavy snow. Scattered clouds.6 mph100%30.38 "Hg0 mi
7:45 AM30 °FHeavy snow. Passing clouds.5 mph93%30.38 "Hg0 mi
7:00 AM28 °FIce fog.5 mph100%30.38 "Hg2 mi
6:55 AM28 °FIce fog.5 mph100%30.38 "Hg1 mi
6:02 AM28 °FIce fog.3 mph100%30.39 "Hg1 mi
5:55 AM28 °FIce fog.3 mph100%30.38 "Hg1 mi
5:00 AM30 °FIce fog.No wind100%30.38 "Hg1 mi
4:00 AM30 °FIce fog.No wind100%30.38 "Hg1 mi
3:56 AM30 °FIce fog.No wind100%30.38 "Hg1 mi
3:00 AM32 °FLow clouds.2 mph100%30.37 "Hg9 mi
2:48 AM30 °FIce fog.3 mph100%30.38 "Hg6 mi
2:00 AM30 °FIce fog.2 mph100%30.38 "Hg0 mi
1:00 AM28 °FIce fog.2 mph100%30.39 "Hg0 mi
12:00 AM30 °FIce fog.6 mph100%30.39 "Hg1 mi
11:52 PM
Sun, Oct 23
28 °FIce fog.6 mph100%30.38 "Hg1 mi
11:00 PM32 °FIce fog.3 mph100%30.37 "Hg3 mi
10:48 PM32 °FIce fog.2 mph100%30.37 "Hg5 mi
10:00 PM36 °FClear.7 mph93%30.36 "Hg9 mi
9:02 PM36 °FFog.8 mph100%30.33 "Hg2 mi
8:59 PM36 °FFog.7 mph100%30.33 "Hg2 mi
8:00 PM36 °FClear.6 mph100%30.33 "Hg9 mi
7:53 PM36 °FPassing clouds.7 mph100%30.33 "Hg9 mi
7:00 PM37 °FClear.6 mph93%30.32 "Hg9 mi
6:00 PM37 °FClear.6 mph93%30.32 "Hg9 mi
5:00 PM43 °FSunny.5 mph87%30.31 "Hg7 mi
4:00 PM46 °FSunny.5 mph76%30.30 "Hg9 mi
Weather by CustomWeather, © 2016

See weather overviewHow to use our weather pages